Preview of NWS' New Version of Forecast
This preview is not operational and should not be used for support decisions.

Regional Weather Roundup (RWR)

Issued by National Weather Service (NWS)

                            
000
ASUS43 KMKX 210320
RWRWI 

WISCONSIN REGIONAL WEATHER ROUNDUP
NATIONAL WEATHER SERVICE MILWAUKEE/SULLIVAN WI
900 PM CST WED FEB 20 2019

NOTE: "FAIR" INDICATES FEW OR NO CLOUDS BELOW 12,000 FEET WITH NO
SIGNIFICANT WEATHER AND/OR OBSTRUCTIONS TO VISIBILITY.

WIZ001-002-006>008-014>016-023>028-210400-
NORTHWEST WISCONSIN
  
CITY           SKY/WX    TMP DP  RH WIND       PRES   REMARKS
SUPERIOR ARPT  CLOUDY    23  22  95 NE7       29.63R WCI  15          
ASHLAND        LGT SNOW  21  21 100 CALM      29.61R FOG              
HAYWARD        LGT SNOW  20  18  92 CALM      29.58S FOG              
SIREN          CLOUDY    20  19  96 NW3       29.63R                  
CUMBERLAND     CLOUDY    23  23 100 SW9       29.60R WCI  13          
RICE LAKE      FLURRIES  25  11  54 SW6       29.62R WCI  18          
CHETEK         CLOUDY    25  24  94 SW6       29.63R WCI  18          
LADYSMITH      CLOUDY    26  25  96 SW6       29.62R WCI  20          
EAU CLAIRE     LGT SNOW  28  23  81 SW12G22   29.64R WCI  18          
MENOMONIE      LGT SNOW  24  19  80 SW15G21   29.66R WCI  11          
NEW RICHMOND   LGT SNOW  25  22  88 W16       29.65R WCI  12          
OSCEOLA        CLOUDY    25  23  91 SW7       29.68R WCI  18          
$$
 
WIZ003>005-009-010-017-018-210400-
NORTH CENTRAL WISCONSIN
  
CITY           SKY/WX    TMP DP  RH WIND       PRES   REMARKS
MANITOWISH WTR NOT AVBL                                               
ARBOR VITAE    LGT SNOW  22  21  93 S3        29.56R                  
WOODRUFF       LGT SNOW  22  21  93 S3        29.56R                  
RHINELANDER    FLURRIES  24  19  81 SW5       29.57R WCI  18          
EAGLE RIVER    LGT SNOW  21  18  88 CALM      29.55S                  
LAND O LAKES   LGT SNOW  21  19  92 CALM      29.57R                  
PHILLIPS       CLOUDY    24  24  99 SW8       29.57R WCI  15          
TOMAHAWK       LGT SNOW  23  22  93 CALM      29.58R                  
MEDFORD        MIX PCPN  26  23  89 SW10G16   29.60R WCI  16          
MERRILL        MIX PCPN  25  24  96 SW7       29.60R WCI  18          
$$
 
WIZ029-030-035-036-043>047-210400-
CENTRAL WISCONSIN
  
CITY           SKY/WX    TMP DP  RH WIND       PRES   REMARKS
WAUSAU         CLOUDY    26  23  88 SW9       29.59R WCI  17          
MOSINEE        LGT SNOW  27  27 100 SW12      29.62R WCI  16          
MARSHFIELD     LGT SNOW  28  25  88 W15G23    29.61R FOG     WCI  16  
STEVENS POINT  MIX PCPN  28  26  94 SW10G20   29.64R WCI  18          
WAUPACA        CLOUDY    33  28  80 SW13G18   29.67R WCI  24          
WAUTOMA        FLURRIES  30  25  80 W15       29.69R WCI  19          
WISC RAPIDS    CLOUDY    30  22  72 SW12      29.66R WCI  20          
CAMP DOUGLAS   FLURRIES  30  25  80 SW12G23   29.69R WCI  21          
$$
 
WIZ011>013-019>022-031-037>040-048>050-210400-
NORTHEAST WISCONSIN
  
CITY           SKY/WX    TMP DP  RH WIND       PRES   REMARKS
ANTIGO         CLOUDY    24  23  97 SW8       29.58S WCI  15          
SHAWANO        CLOUDY    30  27  88 SW7       29.63R WCI  23          
OCONTO         CLOUDY    30  28  91 W12       29.61R WCI  21          
STURGEON BAY   CLOUDY    33  29  85 SW22      29.58F WCI  21          
GREEN BAY      CLOUDY    35  28  75 SW15      29.64R WCI  25          
MANITOWOC      CLOUDY    34  29  82 W18G26    29.65R WCI  23          
APPLETON       CLOUDY    32  27  80 SW15      29.63R WCI  22          
CLINTONVILLE   CLOUDY    29  26  86 SW7       29.64R WCI  22          
OSHKOSH        CLOUDY    34  26  72 SW9G20    29.67R WCI  27          
$$
 
WIZ032>034-041-042-053>061-210400-
SOUTHWEST WISCONSIN
  
CITY           SKY/WX    TMP DP  RH WIND       PRES   REMARKS
LA CROSSE      MIX PCPN  29  20  69 SW15G26   29.73R WCI  18          
SPARTA         CLOUDY    29  23  76 W9G17     29.71R WCI  21          
VIROQUA        CLOUDY    27  23  87 W15G24    29.72R WCI  15          
BOSCOBEL       CLOUDY    31  21  66 SW12G22   29.78R WCI  22          
PRAIRIE DU CHI CLOUDY    28  18  64 SW13G24   29.81R WCI  18          
PLATTEVILLE    CLOUDY    30  26  86 SW21G29   29.79R WCI  17          
$$

WIZ056-057-062-063-064-067-068-210400-
SOUTH CENTRAL WISCONSIN
  
CITY           SKY/WX    TMP DP  RH WIND       PRES   REMARKS
REEDSBURG      DRIZZLE   30  23  75 W12G28    29.73R WCI  20          
BARABOO/DELLS  CLOUDY    30  23  74 W12G18    29.72R WCI  20          
LONE ROCK      FLURRIES  31  23  72 W12G36    29.77R WCI  22          
MINERAL POINT  FLURRIES  32  28  86 SW15G25   29.75R WCI  22          
MADISON        CLOUDY    32  20  61 W13G30    29.74R WCI  22          
MIDDLETON      CLOUDY    32  23  69 W25G32    29.74R WCI  19          
WATERTOWN      CLOUDY    32  25  74 W12G24    29.74R WCI  23          
MONROE         CLOUDY    31  24  73 MISG      29.76R                  
JANESVILLE     CLOUDY    34  27  75 W20G31    29.78R WCI  22          
$$
 
WIZ051-052-058>065-066-070>072-210400-
SOUTHEAST WISCONSIN
  
CITY           SKY/WX    TMP DP  RH WIND       PRES   REMARKS
MILWAUKEE      CLOUDY    36  27  69 W22G36    29.73R WCI  25          
WAUKESHA       CLOUDY    32  27  80 W21G30    29.73R WCI  20          
MILWAUKEE/TIMM CLOUDY    34  23  64 W18G37    29.74R WCI  23          
RACINE         CLOUDY    36  27  69 W18G32    29.76R WCI  26          
KENOSHA        CLOUDY    36  30  79 W24G37    29.75R WCI  24          
FOND DU LAC    CLOUDY    34  25  69 W14G26    29.69R WCI  25          
SHEBOYGAN      CLOUDY    34  28  79 W18G30    29.66R WCI  23          
WEST BEND      CLOUDY    32  28  86 W20G33    29.69R WCI  20          
JUNEAU         CLOUDY    31  25  77 SW21G32   29.73R WCI  19          
$$

LSZ147-162-210400-
LAKE SUPERIOR
  
STATION/POSITION TIME  TEMP    WIND        PRES    WAVE
                       AIR SEA DIR/SP/G            HT/PER
                 (UTC) (F)     (DEG/KT/KT) (MB)    (FT/S)
DEVILS ISLAND    0300   26     100/ 13/ 14 1003.8F
SAXON HARBOR     0230   21      CALM  /  1 1002.4S
$$
 
LMZ867-665-643>646-210400-
LAKE MICHIGAN
  
STATION/POSITION TIME  TEMP    WIND        PRES    WAVE
                       AIR SEA DIR/SP/G            HT/PER
                 (UTC) (F)     (DEG/KT/KT) (MB)    (FT/S)
CHAMBERS ISLAND  0140   31     130/  5/  8 1001.4F
NORTHPORT PIER   0240   31     160/  2/  4 1002.0S
KEWAUNEE LAKESHO 0254   34     250/ 11/ 18 1002.5R
SHEBOYGAN LAKESH 0300   35     250/ 19/ 29 1005.3R
PORT WASHINGTON  0230   36     260/ 11/ 22 1006.4R
MILWAUKEE LAKESH 0300   36     260/ 17/ 20   N/A
KENOSHA   LAKESH 0300   36     250/ 21/ 30 1008.5
$$

TC  - TEMPERATURE IN CELSIUS
VSB - VISIBILITY IN STATUTE MILES
WCI - WIND CHILL INDEX
HX  - HEAT INDEX